Terug naar catalogus

COSMOS 1275 DEB

ActiefPO
NORAD 42122·DEBRIS·🇷🇺 Russia

Gelanceerd Jun 4, 1981 vanaf Plesetsk Cosmodrome

Loading…

Volgende Passages (komende 24 uur)

TLE

VersSource: Space-Track

Epoch: Sep 13, 2026, 09:31 UTC

1 42122U 81053QJ  26256.39686381  .00001244  00000-0  10121-2 0  9991
2 42122  82.9351 296.3111 0087301 280.3429  78.7901 13.87462617645485

Volg COSMOS 1275 DEB in realtime met AllMySat

Download on the App Store